sat.trackr.live / text

‹ back to catalog

KUIPER-00021

NORAD 63736 · 2025-088N

PAYLOAD ACTIVE UNKNOWN

§ Identity

Operator
Country
US
Launch date
2025-04-28
Launch site
AFETR
Launch vehicle
Mass (kg)
RCS (m²)

External: N2YO · Heavens-Above · Gunter

§ Orbital elements

Epoch: 2026-09-21T09:18:04.127328Z

Period
97.30 min
Inclination
51.9005°
Eccentricity
0.0000497
Mean motion
14.79935017 rev/d
Perigee alt
629.2 km
Apogee alt
629.9 km
Semi-major
7,007.7 km
B*
1.0138e-4
RAAN
317.6856°
Arg perigee
87.0625°
Mean anomaly
273.0394°
Rev number
7,647

§ Raw data

KUIPER-000211 63736U 25088N   26264.38754777  .00000552  00000+0  10138-3 0  99932 63736  51.9005 317.6856 0000497  87.0625 273.0394 14.79935017 76479

JSON: /api/v1/satellites/63736 · /tle

For live sub-satellite position, see the globe view (requires WebGL).

§ Visibility from observer

Set your observer location to see the next 7 days of passes ≥ 10°. The values pass through the URL so the page stays shareable.

No JS? Fill the form by hand. The geolocation button needs JavaScript.